TimeCST,TemperatureF,Dew PointF,Humidity,Sea Level PressureIn,VisibilityMPH,Wind Direction,Wind SpeedMPH,Gust SpeedMPH,PrecipitationIn,Events,Conditions,WindDirDegrees,DateUTC
12:53 AM,75.9,69.1,79,29.77,10.0,South,23.0,32.2,N/A,,Overcast,180,2013-01-30 06:53:00
1:53 AM,77.0,68.0,74,29.76,10.0,South,27.6,40.3,N/A,,Overcast,180,2013-01-30 07:53:00
2:53 AM,75.9,68.0,76,29.73,10.0,South,25.3,34.5,N/A,,Overcast,190,2013-01-30 08:53:00
3:13 AM,75.2,68.0,78,29.75,10.0,South,24.2,34.5,N/A,,Mostly Cloudy,180,2013-01-30 09:13:00
3:53 AM,77.0,68.0,74,29.72,10.0,South,26.5,35.7,N/A,,Overcast,190,2013-01-30 09:53:00
4:53 AM,77.0,68.0,74,29.70,10.0,SSW,19.6,36.8,N/A,,Overcast,200,2013-01-30 10:53:00
5:02 AM,77.0,68.0,74,29.70,10.0,South,25.3,34.5,N/A,,Overcast,190,2013-01-30 11:02:00
5:10 AM,77.0,68.0,74,29.69,10.0,SSW,26.5,34.5,N/A,,Overcast,200,2013-01-30 11:10:00
5:53 AM,78.1,68.0,71,29.66,10.0,South,29.9,39.1,N/A,,Overcast,190,2013-01-30 11:53:00
6:53 AM,77.0,68.0,74,29.68,10.0,SSW,26.5,38.0,N/A,,Overcast,200,2013-01-30 12:53:00
7:53 AM,72.0,64.0,76,29.72,6.0,NW,20.7,35.7,0.01,Rain,Light Rain,310,2013-01-30 13:53:00
8:01 AM,62.6,55.4,77,29.75,6.0,WNW,18.4,25.3,0.02,Rain,Light Rain,290,2013-01-30 14:01:00
8:11 AM,62.6,55.4,77,29.75,1.8,NW,24.2,35.7,0.09,Rain,Rain,310,2013-01-30 14:11:00
8:53 AM,60.1,55.0,83,29.76,1.0,WNW,21.9,-,0.73,Rain,Rain,290,2013-01-30 14:53:00
8:56 AM,60.8,53.6,77,29.78,4.0,WNW,21.9,-,0.01,Rain,Light Rain,290,2013-01-30 14:56:00
9:53 AM,59.0,51.1,75,29.81,7.0,WNW,13.8,-,0.14,Rain,Rain,290,2013-01-30 15:53:00
10:53 AM,60.1,53.1,78,29.81,7.0,West,13.8,-,0.08,Rain,Light Rain,280,2013-01-30 16:53:00
11:53 AM,61.0,52.0,72,29.81,10.0,West,13.8,-,0.00,,Overcast,280,2013-01-30 17:53:00
12:53 PM,63.0,50.0,63,29.82,10.0,West,18.4,-,N/A,,Overcast,270,2013-01-30 18:53:00
1:53 PM,63.0,44.1,50,29.81,10.0,West,19.6,-,N/A,,Overcast,280,2013-01-30 19:53:00
2:53 PM,63.0,37.9,40,29.82,10.0,West,29.9,-,N/A,,Overcast,280,2013-01-30 20:53:00
3:53 PM,64.0,39.9,41,29.85,10.0,West,24.2,-,N/A,,Mostly Cloudy,280,2013-01-30 21:53:00
4:53 PM,62.1,39.9,44,29.88,10.0,WNW,29.9,35.7,N/A,,Clear,290,2013-01-30 22:53:00
5:53 PM,61.0,41.0,48,29.93,10.0,NW,31.1,39.1,N/A,,Clear,310,2013-01-30 23:53:00
6:53 PM,59.0,37.9,46,29.98,10.0,NW,29.9,38.0,N/A,,Clear,320,2013-01-31 00:53:00
7:53 PM,57.0,37.9,49,30.04,10.0,NW,34.5,42.6,N/A,,Clear,320,2013-01-31 01:53:00
8:53 PM,55.0,36.0,49,30.09,10.0,NW,29.9,35.7,N/A,,Clear,320,2013-01-31 02:53:00
9:53 PM,53.1,34.0,48,30.13,10.0,NW,27.6,38.0,N/A,,Clear,320,2013-01-31 03:53:00
10:53 PM,53.1,33.1,47,30.15,10.0,NW,26.5,36.8,N/A,,Clear,320,2013-01-31 04:53:00
11:53 PM,53.1,33.1,47,30.18,10.0,NW,26.5,-,N/A,,Clear,320,2013-01-31 05:53:00